Temp
9 9 10 10 10 9 9 9 10 9 9 8 8 8 7 7 7 7 7 7 7 7 7 7 7 7 7 7 7 7 6 5 6 6 5 5 4 4 4 4 4 4 3
9 9 9 9 9 9 10 10 9 9 8 8 8 6 6 6 6 6 6 6 6 6 6 7 7 7 6 5 5 5 5 5 5 5 4 4 3 3 3 3 2 2 2
8 9 8 8 8 8 8 9 9 9 8 7 7 7 7 6 6 5 6 6 6 6 6 6 5 5 5 5 4 5 5 5 4 4 4 3 3 2 2 2 1 1 1
8 8 8 8 8 7 7 7 8 8 7 7 7 7 6 6 6 6 5 6 6 5 5 5 5 4 4 4 4 4 4 4 3 3 3 2 1 1 1 1 1 1 -0
8 8 8 7 7 7 7 7 6 6 6 6 6 6 6 5 5 5 5 5 4 4 4 4 4 3 3 3 3 3 3 2 2 2 1 0 -0 -0 -1 -1 -1 -1 -1
9 9 9 9 8 8 8 8 7 5 5 5 5 5 5 5 5 4 4 4 4 4 4 3 3 3 3 2 2 2 2 1 1 0 -0 -1 -1 -1 -2 -2 -2 -3 -3
9 9 8 8 8 8 7 6 5 5 5 5 5 5 4 4 4 4 4 4 3 3 3 2 2 2 1 1 0 0 -0 -1 -1 -1 -1 -2 -3 -3 -3 -4 -3 -3 -3
8 8 7 7 7 7 6 5 5 5 5 5 4 4 4 4 4 4 3 3 3 2 2 2 1 1 1 0 -0 -1 -1 -1 -2 -2 -3 -3 -3 -4 -3 -2 -2 -2 -2
8 8 7 7 7 6 5 5 5 5 4 4 4 4 3 3 3 3 2 2 2 2 1 1 0 -0 -0 -1 -1 -2 -2 -3 -3 -4 -4 -4 -3 -3 -2 -2 -2 -2 -2
8 7 7 6 6 5 5 5 4 4 4 3 3 3 3 2 2 2 2 2 1 0 -0 -0 -1 -1 -2 -2 -3 -3 -3 -3 -4 -4 -4 -3 -2 -2 -2 -1 -2 -3 -4
7 7 6 6 5 5 5 4 4 4 4 3 3 3 2 2 2 2 2 1 0 -0 -1 -2 -2 -3 -3 -3 -3 -3 -3 -4 -4 -4 -3 -2 -2 -2 -2 -2 -3 -3 -4
7 7 6 6 6 5 5 4 4 4 3 3 2 2 1 1 1 0 0 -1 -2 -3 -4 -4 -4 -4 -4 -4 -4 -4 -4 -5 -5 -4 -3 -3 -3 -3 -4 -4 -4 -5 -5
7 7 7 6 6 6 5 5 4 4 3 2 2 2 1 1 -0 -1 -2 -2 -3 -4 -4 -4 -5 -5 -5 -5 -5 -5 -5 -6 -5 -6 -5 -5 -5 -6 -6 -6 -6 -6 -5
8 7 7 6 6 6 5 5 4 4 3 2 2 2 1 1 0 -0 -1 -2 -3 -4 -5 -5 -5 -5 -5 -6 -5 -5 -6 -6 -6 -5 -6 -6 -6 -6 -6 -6 -6 -6 -6
8 7 7 6 6 6 5 5 4 3 3 2 2 1 1 0 -0 -1 -1 -2 -3 -5 -5 -5 -5 -6 -6 -6 -6 -6 -6 -6 -6 -6 -6 -6 -6 -6 -6 -6 -6 -6 -6
8 7 7 6 6 5 5 5 4 4 3 2 2 1 1 0 -0 -1 -2 -3 -5 -5 -5 -5 -5 -6 -6 -6 -6 -6 -6 -6 -6 -6 -6 -6 -6 -6 -6 -6 -6 -6 -6
8 8 7 7 6 6 5 5 4 3 3 3 2 1 1 0 -0 -1 -2 -3 -5 -5 -6 -6 -6 -6 -6 -6 -6 -6 -6 -6 -6 -6 -6 -6 -6 -7 -7 -7 -7 -6 -6
8 8 7 7 7 6 6 5 4 4 3 2 2 1 1 0 -0 -1 -1 -3 -5 -5 -6 -6 -6 -6 -6 -6 -6 -6 -6 -6 -6 -6 -6 -6 -6 -6 -6 -7 -7 -7 -6
9 8 8 7 7 6 5 5 4 3 3 2 1 1 1 0 -0 -1 -2 -3 -4 -5 -6 -7 -7 -7 -7 -7 -7 -7 -6 -7 -7 -6 -6 -6 -6 -7 -7 -7 -7 -7 -6
9 9 8 7 7 6 5 4 4 3 3 2 1 1 0 -1 -1 -2 -3 -3 -4 -5 -6 -7 -7 -7 -7 -7 -7 -7 -7 -7 -7 -7 -7 -7 -7 -7 -7 -7 -7 -6 -7
10 9 8 7 7 6 6 5 4 3 3 2 1 0 -1 -1 -2 -3 -3 -4 -4 -4 -6 -7 -7 -7 -7 -7 -7 -8 -7 -7 -8 -8 -7 -7 -7 -7 -7 -7 -7 -7 -7
9 9 9 8 7 6 5 5 4 3 3 2 1 -0 -1 -1 -2 -3 -3 -4 -4 -5 -5 -6 -7 -7 -8 -8 -8 -8 -8 -8 -8 -8 -8 -8 -7 -8 -7 -7 -7 -7 -7
9 9 8 8 7 6 5 4 4 3 2 2 1 0 -0 -1 -2 -3 -4 -4 -5 -5 -5 -6 -7 -8 -8 -8 -8 -7 -8 -8 -8 -8 -8 -8 -8 -8 -8 -7 -7 -7 -7
9 8 7 7 6 6 5 4 3 2 2 1 -0 0 -0 -1 -2 -3 -4 -5 -5 -5 -5 -6 -7 -7 -7 -7 -7 -8 -8 -7 -7 -7 -7 -8 -8 -8 -8 -7 -7 -7 -7
9 7 6 6 5 5 4 3 2 1 1 -1 1 -0 -1 -2 -3 -3 -4 -5 -5 -5 -5 -6 -6 -7 -7 -7 -7 -7 -7 -7 -7 -7 -7 -7 -8 -8 -8 -7 -7 -7 -7
8 6 6 5 4 4 3 2 0 -1 -1 0 0 -1 -1 -2 -3 -4 -5 -5 -5 -5 -5 -6 -6 -6 -6 -6 -6 -6 -6 -6 -6 -7 -7 -8 -7 -7 -7 -6 -6 -7 -7
Height
1504 1505 1507 1508 1510 1512 1515 1519 1520 1523 1526 1529 1532 1534 1538 1542 1546 1549 1552 1557 1560 1562 1564 1566 1568 1569 1572 1573 1572 1571 1571 1573 1577 1577 1578 1578 1579 1577 1578 1577 1573 1571 1571
1507 1506 1509 1510 1511 1513 1515 1516 1520 1523 1526 1530 1532 1536 1540 1543 1547 1550 1554 1556 1558 1560 1561 1563 1564 1563 1566 1566 1566 1567 1573 1572 1571 1576 1575 1575 1574 1571 1572 1571 1569 1567 1562
1509 1510 1513 1514 1516 1516 1514 1518 1522 1525 1527 1531 1532 1536 1540 1543 1547 1550 1552 1554 1555 1557 1557 1558 1560 1561 1562 1563 1564 1565 1568 1568 1571 1572 1572 1571 1570 1567 1565 1563 1563 1561 1559
1511 1513 1516 1516 1519 1521 1521 1522 1523 1528 1530 1530 1534 1538 1543 1543 1545 1549 1549 1550 1550 1553 1555 1555 1559 1561 1561 1562 1562 1562 1563 1563 1565 1565 1564 1565 1566 1565 1564 1559 1556 1554 1553
1513 1515 1517 1519 1523 1523 1523 1524 1527 1530 1534 1536 1537 1538 1542 1543 1545 1548 1548 1549 1551 1552 1554 1554 1555 1559 1561 1560 1562 1560 1562 1560 1559 1559 1561 1561 1562 1561 1560 1556 1552 1551 1549
1516 1518 1520 1523 1525 1524 1522 1525 1529 1535 1535 1539 1539 1541 1542 1542 1545 1549 1549 1549 1551 1551 1554 1554 1555 1555 1557 1557 1559 1559 1560 1559 1555 1555 1556 1557 1557 1556 1554 1552 1551 1550 1548
1520 1522 1524 1525 1526 1525 1527 1529 1533 1534 1535 1538 1540 1540 1543 1543 1540 1548 1551 1549 1548 1550 1551 1551 1552 1552 1554 1555 1553 1555 1558 1556 1552 1551 1551 1552 1553 1552 1549 1550 1549 1549 1545
1521 1522 1523 1524 1524 1526 1528 1532 1533 1535 1536 1539 1540 1541 1541 1539 1542 1546 1549 1548 1547 1549 1549 1548 1549 1548 1551 1552 1552 1553 1556 1553 1550 1548 1549 1549 1550 1548 1547 1547 1546 1544 1541
1520 1521 1522 1524 1525 1527 1529 1531 1533 1535 1537 1540 1540 1538 1538 1541 1544 1545 1547 1548 1545 1545 1545 1546 1546 1547 1548 1547 1549 1552 1552 1549 1548 1547 1546 1546 1545 1545 1544 1544 1542 1541 1539
1518 1521 1523 1525 1527 1529 1530 1532 1533 1535 1535 1535 1535 1537 1539 1541 1543 1544 1545 1544 1542 1542 1542 1542 1543 1544 1545 1546 1549 1549 1548 1547 1546 1545 1544 1543 1542 1542 1541 1541 1540 1539 1536
1517 1520 1522 1525 1527 1529 1530 1532 1533 1534 1535 1536 1537 1539 1540 1542 1543 1543 1542 1541 1539 1539 1539 1540 1542 1543 1545 1545 1545 1545 1545 1544 1542 1541 1541 1541 1540 1540 1539 1538 1537 1536 1534
1514 1517 1520 1522 1524 1526 1529 1530 1532 1533 1534 1536 1537 1538 1539 1540 1540 1540 1540 1539 1539 1539 1540 1540 1541 1543 1543 1543 1543 1542 1540 1541 1540 1540 1539 1538 1539 1538 1538 1536 1535 1533 1532
1509 1513 1516 1519 1521 1524 1526 1528 1530 1532 1533 1535 1536 1536 1537 1538 1538 1538 1539 1539 1539 1540 1540 1539 1540 1539 1539 1538 1539 1538 1537 1537 1537 1538 1538 1538 1538 1537 1536 1534 1533 1531 1529
1507 1510 1513 1516 1518 1521 1523 1525 1527 1529 1531 1532 1533 1534 1535 1536 1536 1537 1537 1538 1538 1538 1538 1537 1537 1536 1535 1535 1535 1535 1535 1536 1537 1537 1537 1536 1536 1535 1534 1532 1530 1527 1525
1503 1507 1509 1512 1514 1517 1519 1522 1524 1526 1528 1530 1531 1532 1533 1534 1535 1535 1535 1535 1535 1534 1534 1534 1534 1533 1532 1533 1533 1533 1533 1534 1535 1534 1534 1534 1533 1532 1531 1529 1526 1524 1521
1499 1502 1506 1510 1513 1515 1517 1518 1520 1522 1525 1527 1528 1529 1530 1530 1531 1531 1531 1532 1532 1531 1532 1532 1532 1531 1531 1531 1531 1531 1531 1531 1532 1531 1531 1531 1529 1528 1526 1524 1522 1519 1516
1491 1497 1501 1504 1507 1510 1513 1515 1516 1518 1520 1522 1524 1525 1526 1527 1528 1528 1528 1529 1529 1528 1529 1528 1528 1528 1528 1528 1528 1528 1528 1528 1528 1528 1527 1526 1525 1524 1522 1519 1517 1514 1512
1487 1491 1495 1499 1502 1505 1508 1511 1513 1515 1516 1518 1520 1522 1523 1523 1524 1524 1525 1525 1526 1525 1525 1525 1524 1524 1524 1524 1524 1524 1524 1524 1524 1524 1523 1522 1521 1520 1518 1515 1513 1510 1508
1479 1484 1489 1493 1496 1500 1503 1506 1508 1511 1513 1515 1516 1518 1519 1520 1521 1521 1521 1521 1521 1521 1521 1521 1521 1520 1521 1521 1521 1521 1521 1520 1520 1519 1518 1517 1516 1515 1512 1510 1508 1507 1505
1474 1479 1483 1487 1491 1495 1498 1500 1503 1506 1509 1511 1513 1515 1516 1517 1517 1518 1518 1518 1518 1518 1517 1517 1517 1517 1517 1517 1517 1516 1516 1516 1515 1515 1514 1513 1512 1510 1508 1506 1504 1502 1500
1466 1470 1475 1480 1484 1488 1492 1495 1499 1502 1505 1507 1510 1512 1514 1515 1515 1515 1515 1515 1515 1514 1513 1513 1513 1513 1513 1513 1513 1512 1511 1511 1511 1510 1510 1509 1508 1506 1504 1502 1500 1498 1495
1458 1462 1466 1472 1477 1480 1485 1490 1495 1498 1501 1504 1507 1509 1510 1511 1512 1512 1513 1513 1512 1511 1510 1510 1510 1510 1510 1509 1509 1508 1507 1507 1507 1507 1506 1505 1504 1502 1500 1497 1495 1492 1489
1451 1454 1458 1464 1469 1475 1480 1486 1490 1495 1498 1500 1503 1505 1505 1507 1508 1509 1509 1509 1509 1508 1507 1507 1506 1506 1505 1505 1504 1504 1504 1504 1504 1503 1502 1501 1499 1497 1495 1492 1490 1487 1484
1444 1448 1453 1457 1462 1469 1476 1482 1487 1491 1495 1497 1500 1500 1501 1502 1504 1505 1505 1506 1505 1505 1504 1503 1503 1502 1502 1501 1501 1501 1500 1500 1500 1499 1497 1496 1494 1493 1490 1487 1485 1481 1479
1438 1442 1446 1451 1458 1465 1472 1478 1483 1488 1491 1494 1496 1496 1497 1499 1499 1501 1502 1502 1502 1502 1501 1500 1500 1500 1500 1499 1499 1498 1498 1497 1496 1494 1493 1492 1490 1488 1485 1482 1479 1476 1474
1434 1438 1443 1449 1456 1462 1468 1473 1477 1483 1488 1491 1491 1493 1494 1495 1496 1497 1498 1498 1499 1499 1498 1497 1497 1497 1496 1496 1496 1495 1494 1493 1492 1491 1489 1488 1485 1483 1480 1477 1474 1471 1468
Wind_Speed
14 15 17 14 15 17 18 15 12 11 8 9 12 15 16 19 19 18 19 19 21 22 22 24 19 19 25 22 23 17 13 13 13 11 11 12 15 15 17 21 24 26 26
13 13 17 18 17 18 15 12 11 12 11 9 10 11 13 16 16 18 19 20 21 20 19 20 22 20 19 14 9 9 11 11 11 13 12 13 15 18 22 23 22 23 23
13 12 12 15 15 18 20 20 17 14 13 13 11 9 11 13 17 19 20 21 20 20 18 15 10 9 10 10 10 9 11 11 11 11 14 17 18 18 19 20 21 21 21
16 17 17 16 15 16 16 15 14 11 12 14 13 13 12 12 12 11 11 11 10 8 8 7 7 8 9 9 10 9 10 10 13 14 14 15 16 17 19 19 19 17 17
12 14 14 14 14 14 14 14 14 13 13 13 14 14 11 9 8 7 7 7 7 7 8 8 8 8 7 8 9 10 12 12 12 12 13 14 14 16 16 16 19 20 20
15 16 16 16 14 14 14 12 12 15 14 12 11 10 10 9 8 6 6 6 5 5 5 5 6 7 8 10 11 12 12 11 11 11 11 13 13 12 14 16 18 19 15
18 17 16 15 14 14 14 14 14 14 13 11 9 7 6 4 3 4 5 6 6 7 8 9 10 10 11 11 12 12 12 12 12 12 11 11 11 12 15 13 14 18 18
17 17 15 13 12 13 13 13 12 11 9 7 6 4 3 2 2 4 5 6 6 8 9 9 10 11 11 11 11 11 11 9 9 10 10 10 10 12 16 19 21 23 21
15 14 13 11 11 11 11 10 10 9 8 7 5 4 3 2 1 2 2 4 4 6 7 8 9 9 9 8 8 8 7 6 6 10 14 14 15 15 18 17 16 16 17
15 13 12 11 9 9 9 9 9 7 5 4 3 3 2 1 1 1 2 3 3 4 6 7 7 6 5 5 7 7 7 8 8 11 11 12 12 11 12 12 12 14 15
17 15 13 12 10 9 9 9 7 6 5 4 4 3 2 1 2 3 3 4 5 5 5 4 3 5 4 5 5 8 9 8 8 8 8 7 6 6 7 8 10 11 13
19 17 15 13 11 9 9 8 7 6 5 5 4 3 3 2 2 4 4 5 4 4 3 5 6 6 8 9 7 9 11 7 9 8 6 5 5 4 4 7 10 11 12
21 19 17 15 13 11 9 9 8 7 7 6 5 4 3 3 4 4 5 6 6 3 3 4 6 7 8 8 9 8 10 8 5 3 4 6 7 8 10 12 11 13 15
23 22 20 18 16 14 12 11 9 8 8 7 6 5 5 5 6 6 7 8 7 7 7 8 8 8 8 5 5 8 6 4 4 6 7 8 9 10 11 12 14 16 19
24 23 22 20 17 14 11 9 8 9 9 8 8 8 7 7 7 8 8 8 8 7 7 7 7 11 5 4 4 5 6 7 8 8 10 11 12 12 13 15 16 17 18
27 27 24 21 19 17 14 13 12 11 11 11 10 8 8 8 8 8 8 6 7 8 7 7 9 10 7 6 7 8 9 10 10 11 11 12 14 16 18 17 18 19 18
30 28 26 25 23 21 19 17 15 14 13 11 10 9 8 8 8 8 9 8 9 8 7 8 10 9 8 9 9 10 9 10 12 13 14 14 15 16 18 18 18 17 16
31 29 28 26 25 23 20 18 16 15 13 11 10 9 8 8 8 9 9 8 9 10 10 9 10 8 8 9 9 10 11 12 13 14 13 14 14 17 20 22 17 14 18
34 33 31 29 27 24 22 20 18 16 15 14 12 11 9 9 8 8 8 7 8 10 10 9 9 8 8 8 11 11 11 12 14 14 14 17 20 22 22 20 16 16 18
35 33 32 31 30 28 26 24 22 20 17 17 15 13 11 11 9 8 9 9 10 10 10 9 9 9 11 13 15 15 16 15 15 16 17 20 21 17 17 16 17 20 22
34 35 35 33 32 30 29 27 24 20 18 17 14 13 12 12 11 11 11 11 10 10 8 8 8 9 10 11 12 13 13 14 13 13 13 13 13 14 15 17 19 23 24
35 36 36 34 34 33 31 28 24 21 17 16 14 14 13 14 13 12 11 11 10 9 9 9 10 11 10 13 15 15 12 10 11 11 12 14 14 15 18 21 22 19 20
31 34 36 36 35 33 32 27 23 19 16 15 13 14 15 14 12 12 11 11 10 10 10 11 10 10 11 12 12 11 9 9 11 12 14 15 18 19 16 19 21 22 21
27 31 32 34 35 34 31 26 22 17 16 13 13 16 15 14 13 12 12 11 10 10 10 10 10 7 8 8 6 7 8 10 12 13 14 14 16 18 19 21 21 21 21
24 27 29 30 32 30 28 24 19 18 17 14 15 17 14 14 13 13 12 11 10 10 9 7 7 7 8 7 7 8 9 11 12 13 13 15 17 17 18 18 19 20 20
22 24 24 24 25 26 26 25 22 21 18 15 18 15 13 12 12 12 12 11 11 10 9 8 9 9 9 9 9 10 11 11 12 12 14 16 18 18 19 21 22 22 22
Wind_Direction
133 130 125 120 120 130 132 130 137 151 167 177 193 204 209 214 210 204 200 207 223 225 227 220 239 260 267 273 273 266 246 224 234 220 241 259 264 271 279 284 286 288 290
124 126 139 132 140 144 140 126 151 162 166 173 175 179 170 170 177 192 206 208 209 214 229 249 257 266 262 245 228 218 232 231 232 261 264 267 274 283 288 290 292 294 294
139 138 144 146 150 144 134 133 130 132 140 148 150 167 182 196 209 214 214 221 232 245 253 251 239 227 218 224 225 226 244 255 264 271 280 286 287 289 290 292 295 297 297
123 125 128 124 127 126 122 121 126 134 148 146 149 161 178 184 196 208 208 208 199 200 201 200 204 208 211 224 240 246 253 264 279 284 285 289 294 300 302 304 306 308 314
139 140 137 135 139 139 133 129 124 128 135 137 141 144 149 154 159 180 186 189 188 191 197 199 207 222 238 248 262 271 279 284 285 289 293 299 303 308 308 316 319 318 322
132 128 124 127 126 117 112 117 128 143 137 139 139 138 139 140 136 147 149 156 166 174 201 215 229 239 256 269 274 279 282 286 288 291 298 300 304 306 315 319 318 319 327
148 144 141 138 135 130 130 132 139 136 134 138 137 140 151 152 152 222 237 242 243 244 245 244 246 254 264 268 275 285 290 292 297 300 301 304 310 312 311 318 316 315 315
156 150 144 138 135 134 137 144 143 141 141 143 146 156 149 130 214 237 248 247 246 246 249 252 253 257 259 261 264 271 275 282 290 296 295 296 298 300 310 309 315 316 320
163 156 147 141 140 141 147 148 146 145 148 150 143 123 109 127 182 230 240 242 250 253 253 254 256 257 263 270 268 271 273 281 290 294 297 287 289 294 296 310 313 318 321
172 165 158 153 154 155 157 154 150 145 138 119 99 91 74 61 23 317 303 293 286 285 281 274 269 265 249 249 272 269 269 275 280 287 279 288 296 301 305 310 315 320 325
178 175 172 168 166 165 166 164 164 162 162 162 169 177 195 254 301 315 327 333 328 318 313 298 262 204 213 254 254 277 270 267 278 293 304 302 309 314 320 326 328 328 324
186 184 183 180 177 177 179 183 181 186 189 189 189 197 211 246 290 320 333 340 338 334 301 277 239 242 247 241 261 261 275 275 284 294 290 304 309 313 325 336 340 342 340
193 192 192 190 189 190 193 195 199 203 205 207 207 213 230 255 279 288 287 299 298 304 275 283 267 253 258 251 233 243 262 281 286 329 338 330 334 329 334 331 328 329 330
200 199 199 200 199 197 197 199 202 208 214 217 221 230 240 252 264 272 278 286 284 277 279 292 289 293 287 287 234 227 248 282 290 291 298 306 308 310 316 319 324 325 327
207 208 208 207 206 206 205 208 209 209 213 219 222 228 238 248 255 264 271 270 279 284 291 294 284 307 285 261 241 248 258 267 271 282 295 302 304 308 311 312 314 316 319
212 212 213 215 214 215 216 217 219 219 222 223 225 231 239 249 262 269 272 272 252 261 282 267 278 294 285 261 262 265 271 271 273 280 289 296 301 307 310 311 312 311 313
218 218 216 217 218 220 221 223 224 222 229 233 235 241 247 259 267 268 273 264 255 263 281 276 279 284 275 271 274 275 278 274 277 282 289 294 301 309 313 317 310 313 319
224 225 227 226 224 223 225 228 228 230 232 233 239 247 253 265 270 276 282 273 256 269 277 276 278 280 278 274 277 279 279 284 286 290 296 300 294 304 302 311 310 312 323
225 226 225 226 228 229 229 228 230 230 228 230 232 239 249 258 268 275 288 273 274 280 284 278 277 275 273 270 267 273 277 279 288 287 286 287 292 299 303 303 309 312 310
228 231 230 227 226 225 226 228 228 228 228 231 233 240 242 252 263 271 277 275 279 288 286 278 277 275 280 275 272 276 280 280 280 280 282 288 294 296 300 303 307 308 306
229 230 229 228 227 228 228 229 230 230 231 232 235 241 249 255 260 264 270 273 279 287 288 285 282 283 286 287 289 290 287 284 286 289 292 294 297 298 304 303 302 300 308
231 230 231 228 227 226 226 227 229 229 230 231 235 238 248 257 259 264 265 270 276 283 289 287 281 277 277 280 286 292 295 292 287 288 290 292 296 296 299 297 304 307 308
233 232 231 228 227 225 224 224 224 224 225 229 235 244 249 259 258 259 259 269 276 285 287 290 292 288 285 285 283 286 287 288 292 289 290 293 293 301 307 310 311 312 313
231 231 229 227 224 222 219 219 216 217 220 222 240 249 250 255 256 255 258 267 273 286 290 286 289 294 297 290 284 282 284 291 296 299 299 302 302 307 311 313 313 312 310
226 226 225 224 221 217 211 207 204 212 216 226 240 244 246 249 251 252 257 263 268 281 296 285 285 287 292 293 289 290 298 301 303 305 302 304 304 308 309 309 314 314 309
219 218 219 217 213 207 201 196 207 207 220 221 238 238 243 249 250 249 254 259 266 276 293 280 277 285 291 277 278 291 299 303 307 308 305 303 304 309 310 313 315 311 311